| time (UTC) | temp F | wind direction | speed knots | gust knots | rain 1hr in | rain 24hr in | rain mn in | humidity % | barometer mb |
| 20260510113333 | 65 | 33 | 6.1 | 16.5 | 0.00 | 0.00 | 0.00 | 56 | 1013.3 |
| 20260510112855 | 65 | 69 | 5.2 | 13.9 | 0.00 | 0.00 | 0.00 | 57 | 1013.4 |
| 20260510112345 | 65 | 98 | 1.7 | 12.2 | 0.00 | 0.00 | 0.00 | 61 | 1013.4 |
| 20260510111847 | 64 | 266 | 3.5 | 13.0 | 0.00 | 0.00 | 0.00 | 59 | 1013.6 |
| 20260510111320 | 64 | 350 | 7.0 | 14.8 | 0.00 | 0.00 | 0.00 | 60 | 1013.7 |
| 20260510110827 | 64 | 83 | 5.2 | 10.4 | 0.00 | 0.00 | 0.00 | 58 | 1013.8 |
| 20260510110322 | 64 | 27 | 4.3 | 12.2 | 0.00 | 0.00 | 0.00 | 57 | 1013.8 |
| 20260510105826 | 64 | 40 | 5.2 | 12.2 | 0.00 | 0.00 | 0.00 | 57 | 1013.8 |
| 20260510105339 | 64 | 40 | 5.2 | 13.9 | 0.00 | 0.00 | 0.00 | 57 | 1013.8 |
| 20260510104834 | 64 | 42 | 7.8 | 13.9 | 0.00 | 0.00 | 0.00 | 56 | 1013.9 |
| 20260510104329 | 64 | 294 | 7.0 | 11.3 | 0.00 | 0.00 | 0.00 | 57 | 1013.9 |
| 20260510103820 | 64 | 151 | 5.2 | 11.3 | 0.00 | 0.00 | 0.00 | 57 | 1013.9 |
| 20260510103340 | 63 | 354 | 7.0 | 11.3 | 0.00 | 0.00 | 0.00 | 57 | 1013.9 |
| 20260510102835 | 63 | 45 | 6.1 | 10.4 | 0.00 | 0.00 | 0.00 | 57 | 1014.0 |
| 20260510102321 | 63 | 9 | 7.0 | 12.2 | 0.00 | 0.00 | 0.00 | 58 | 1014.1 |
| 20260510101822 | 63 | 10 | 6.1 | 15.6 | 0.00 | 0.00 | 0.00 | 57 | 1014.1 |
| 20260510101317 | 64 | 335 | 7.0 | 15.6 | 0.00 | 0.00 | 0.00 | 57 | 1014.2 |
| 20260510100859 | 63 | 231 | 4.3 | 12.2 | 0.00 | 0.00 | 0.00 | 58 | 1014.2 |
| 20260510100331 | 62 | 47 | 5.2 | 13.9 | 0.00 | 0.00 | 0.00 | 57 | 1014.3 |
| 20260510095845 | 63 | 19 | 5.2 | 13.9 | 0.00 | 0.00 | 0.00 | 56 | 1014.5 |
| 20260510095330 | 62 | 44 | 5.2 | 11.3 | 0.00 | 0.00 | 0.00 | 57 | 1014.4 |
| 20260510094831 | 62 | 19 | 5.2 | 13.9 | 0.00 | 0.00 | 0.00 | 58 | 1014.4 |
| 20260510094325 | 61 | 58 | 7.0 | 16.5 | 0.00 | 0.00 | 0.00 | 57 | 1014.5 |
| 20260510093838 | 62 | 32 | 9.6 | 18.2 | 0.00 | 0.00 | 0.00 | 57 | 1014.4 |
| 20260510093338 | 62 | 37 | 6.1 | 19.1 | 0.00 | 0.00 | 0.00 | 58 | 1014.5 |
| 20260510092833 | 61 | 19 | 7.0 | 13.9 | 0.00 | 0.00 | 0.00 | 57 | 1014.6 |
| 20260510092329 | 62 | 156 | 6.1 | 15.6 | 0.00 | 0.00 | 0.00 | 58 | 1014.6 |
| 20260510091824 | 62 | 42 | 7.8 | 15.6 | 0.00 | 0.00 | 0.00 | 59 | 1014.6 |
| 20260510091329 | 62 | 49 | 4.3 | 13.0 | 0.00 | 0.00 | 0.00 | 63 | 1014.6 |
| 20260510090834 | 62 | 25 | 5.2 | 14.8 | 0.00 | 0.00 | 0.00 | 63 | 1014.5 |
| 20260510090335 | 61 | 8 | 4.3 | 14.8 | 0.00 | 0.00 | 0.00 | 64 | 1014.6 |
| 20260510085841 | 61 | 66 | 4.3 | 13.0 | 0.00 | 0.00 | 0.00 | 65 | 1014.6 |
| 20260510085332 | 61 | 10 | 7.0 | 13.0 | 0.00 | 0.00 | 0.00 | 64 | 1014.7 |
| 20260510084849 | 61 | 22 | 6.1 | 12.2 | 0.00 | 0.00 | 0.00 | 65 | 1014.7 |
| 20260510084350 | 60 | 27 | 7.8 | 12.2 | 0.00 | 0.00 | 0.00 | 66 | 1014.7 |
| 20260510083836 | 60 | 335 | 5.2 | 13.9 | 0.00 | 0.00 | 0.00 | 66 | 1014.7 |
| 20260510083318 | 60 | 40 | 7.8 | 14.8 | 0.00 | 0.00 | 0.00 | 66 | 1014.8 |
| 20260510082840 | 60 | 28 | 6.1 | 14.8 | 0.00 | 0.00 | 0.00 | 66 | 1014.8 |
| 20260510082325 | 60 | 342 | 4.3 | 13.9 | 0.00 | 0.00 | 0.00 | 67 | 1014.9 |
| 20260510081825 | 59 | 25 | 6.1 | 16.5 | 0.00 | 0.00 | 0.00 | 67 | 1014.9 |
| 20260510081319 | 59 | 82 | 6.1 | 16.5 | 0.00 | 0.00 | 0.00 | 68 | 1014.9 |
| 20260510080826 | 59 | 73 | 7.8 | 13.0 | 0.00 | 0.00 | 0.00 | 67 | 1014.9 |
| 20260510080320 | 59 | 24 | 6.1 | 13.0 | 0.00 | 0.00 | 0.00 | 68 | 1015.0 |
| 20260510075832 | 59 | 30 | 5.2 | 13.9 | 0.00 | 0.00 | 0.00 | 69 | 1015.0 |
| 20260510075347 | 59 | 1 | 6.1 | 10.4 | 0.00 | 0.00 | 0.00 | 70 | 1015.0 |
| 20260510074820 | 58 | 19 | 5.2 | 14.8 | 0.00 | 0.00 | 0.00 | 70 | 1015.1 |
| 20260510074322 | 58 | 8 | 8.7 | 14.8 | 0.00 | 0.00 | 0.00 | 69 | 1015.1 |
| 20260510073827 | 58 | 38 | 7.0 | 12.2 | 0.00 | 0.00 | 0.00 | 69 | 1015.1 |
| 20260510073328 | 58 | 21 | 4.3 | 13.9 | 0.00 | 0.00 | 0.00 | 72 | 1015.2 |
| 20260510072822 | 58 | 22 | 6.1 | 13.9 | 0.00 | 0.00 | 0.00 | 72 | 1015.2 |
| 20260510072337 | 58 | 308 | 4.3 | 11.3 | 0.00 | 0.00 | 0.00 | 73 | 1015.2 |
| 20260510071831 | 57 | 6 | 5.2 | 10.4 | 0.00 | 0.00 | 0.00 | 74 | 1015.2 |
| 20260510071332 | 57 | 39 | 4.3 | 11.3 | 0.00 | 0.00 | 0.00 | 75 | 1015.3 |
| 20260510070846 | 57 | 355 | 6.1 | 12.2 | 0.00 | 0.00 | 0.00 | 76 | 1015.3 |
| 20260510070318 | 56 | 103 | 7.0 | 12.2 | 0.00 | 0.00 | 0.00 | 77 | 1015.3 |
| 20260510065831 | 56 | 43 | 7.8 | 13.9 | 0.00 | 0.00 | 0.00 | 77 | 1015.3 |
| 20260510065319 | 56 | 35 | 7.8 | 13.9 | 0.00 | 0.00 | 0.00 | 78 | 1015.3 |
| 20260510064818 | 55 | 30 | 7.0 | 12.2 | 0.00 | 0.00 | 0.00 | 78 | 1015.3 |
| 20260510064400 | 55 | 30 | 5.2 | 12.2 | 0.00 | 0.00 | 0.00 | 79 | 1015.3 |
| 20260510063827 | 55 | 49 | 7.0 | 13.0 | 0.00 | 0.00 | 0.00 | 79 | 1015.3 |
| 20260510063320 | 55 | 13 | 6.1 | 13.0 | 0.00 | 0.00 | 0.00 | 80 | 1015.3 |
| 20260510062839 | 55 | 349 | 7.8 | 13.9 | 0.00 | 0.00 | 0.00 | 80 | 1015.3 |
| 20260510062329 | 55 | 43 | 7.0 | 15.6 | 0.00 | 0.00 | 0.00 | 80 | 1015.4 |
| 20260510061823 | 55 | 5 | 8.7 | 13.9 | 0.00 | 0.00 | 0.00 | 80 | 1015.4 |
| 20260510061324 | 55 | 90 | 8.7 | 13.9 | 0.00 | 0.00 | 0.00 | 80 | 1015.4 |
| 20260510060840 | 55 | 19 | 5.2 | 14.8 | 0.00 | 0.00 | 0.00 | 80 | 1015.4 |
| 20260510060334 | 54 | 43 | 4.3 | 14.8 | 0.00 | 0.00 | 0.00 | 81 | 1015.5 |
| 20260510055827 | 54 | 360 | 4.3 | 7.8 | 0.00 | 0.00 | 0.00 | 83 | 1015.4 |
| 20260510055341 | 54 | 41 | 1.7 | 7.8 | 0.00 | 0.00 | 0.00 | 84 | 1015.5 |
| 20260510054816 | 53 | 56 | 2.6 | 7.0 | 0.00 | 0.00 | 0.00 | 84 | 1015.5 |
| 20260510054332 | 53 | 33 | 2.6 | 7.0 | 0.00 | 0.00 | 0.00 | 85 | 1015.5 |
| 20260510053823 | 53 | 40 | 2.6 | 5.2 | 0.00 | 0.00 | 0.00 | 85 | 1015.4 |
| 20260510053343 | 53 | 321 | 2.6 | 7.0 | 0.00 | 0.00 | 0.00 | 85 | 1015.5 |
| 20260510052817 | 53 | 13 | 4.3 | 7.0 | 0.00 | 0.00 | 0.00 | 85 | 1015.5 |
| 20260510052328 | 53 | 51 | 2.6 | 7.0 | 0.00 | 0.00 | 0.00 | 85 | 1015.4 |
| 20260510051822 | 53 | 44 | 3.5 | 11.3 | 0.00 | 0.00 | 0.00 | 84 | 1015.5 |
| 20260510051325 | 53 | 103 | 5.2 | 11.3 | 0.00 | 0.00 | 0.00 | 84 | 1015.4 |
| 20260510050831 | 53 | 5 | 4.3 | 11.3 | 0.00 | 0.00 | 0.00 | 84 | 1015.4 |
| 20260510050332 | 53 | 13 | 6.1 | 12.2 | 0.00 | 0.00 | 0.00 | 85 | 1015.3 |
| 20260510045840 | 52 | 14 | 3.5 | 8.7 | 0.00 | 0.00 | 0.00 | 85 | 1015.3 |
| 20260510045327 | 52 | 335 | 2.6 | 7.0 | 0.00 | 0.00 | 0.00 | 86 | 1015.3 |
| 20260510044823 | 52 | 40 | 3.5 | 7.0 | 0.00 | 0.00 | 0.00 | 86 | 1015.3 |
| 20260510044325 | 52 | 65 | 3.5 | 7.8 | 0.00 | 0.00 | 0.00 | 86 | 1015.3 |
| 20260510043840 | 52 | 30 | 2.6 | 7.8 | 0.00 | 0.00 | 0.00 | 86 | 1015.2 |
| 20260510043335 | 52 | 30 | 3.5 | 7.8 | 0.00 | 0.00 | 0.00 | 86 | 1015.2 |
| 20260510042826 | 52 | 8 | 4.3 | 7.8 | 0.00 | 0.00 | 0.00 | 86 | 1015.2 |
| 20260510042322 | 52 | 40 | 2.6 | 5.2 | 0.00 | 0.00 | 0.00 | 86 | 1015.2 |
| 20260510041816 | 52 | 30 | 3.5 | 5.2 | 0.00 | 0.00 | 0.00 | 86 | 1015.2 |
| 20260510041317 | 52 | 1 | 1.7 | 5.2 | 0.00 | 0.00 | 0.00 | 86 | 1015.2 |
| 20260510040826 | 52 | 49 | 2.6 | 5.2 | 0.00 | 0.00 | 0.00 | 86 | 1015.3 |
| 20260510040318 | 52 | 49 | 2.6 | 4.3 | 0.00 | 0.00 | 0.00 | 86 | 1015.3 |
| 20260510035831 | 53 | 348 | 0.9 | 5.2 | 0.00 | 0.00 | 0.00 | 86 | 1015.3 |
| 20260510035318 | 53 | 50 | 2.6 | 6.1 | 0.00 | 0.00 | 0.00 | 85 | 1015.3 |
| 20260510034841 | 53 | 62 | 2.6 | 6.1 | 0.00 | 0.00 | 0.00 | 85 | 1015.4 |
| 20260510034315 | 53 | 318 | 3.5 | 5.2 | 0.00 | 0.00 | 0.00 | 86 | 1015.4 |
| 20260510033831 | 53 | 37 | 2.6 | 4.3 | 0.00 | 0.00 | 0.00 | 86 | 1015.3 |
| 20260510033342 | 53 | 41 | 2.6 | 4.3 | 0.00 | 0.00 | 0.00 | 86 | 1015.3 |
| 20260510032840 | 53 | 33 | 2.6 | 5.2 | 0.00 | 0.00 | 0.00 | 86 | 1015.3 |
| 20260510032354 | 52 | 27 | 1.7 | 5.2 | 0.00 | 0.00 | 0.00 | 86 | 1015.4 |
| 20260510031834 | 52 | 73 | 0.9 | 4.3 | 0.00 | 0.00 | 0.00 | 86 | 1015.4 |
| 20260510031357 | 53 | 56 | 1.7 | 4.3 | 0.00 | 0.00 | 0.00 | 86 | 1015.4 |
| 20260510030821 | 53 | 72 | 1.7 | 3.5 | 0.00 | 0.00 | 0.00 | 86 | 1015.4 |
| 20260510030316 | 53 | 60 | 1.7 | 3.5 | 0.00 | 0.00 | 0.00 | 86 | 1015.4 |
| 20260510025829 | 53 | 46 | 0.9 | 3.5 | 0.00 | 0.00 | 0.00 | 86 | 1015.4 |
| 20260510025325 | 53 | 18 | 1.7 | 7.8 | 0.00 | 0.00 | 0.00 | 85 | 1015.4 |
| 20260510024820 | 53 | 43 | 4.3 | 7.8 | 0.00 | 0.00 | 0.00 | 86 | 1015.3 |
| 20260510024339 | 53 | 46 | 2.6 | 5.2 | 0.00 | 0.00 | 0.00 | 85 | 1015.4 |
| 20260510023828 | 53 | 10 | 1.7 | 6.1 | 0.00 | 0.00 | 0.00 | 85 | 1015.4 |
| 20260510023347 | 53 | 53 | 2.6 | 7.0 | 0.00 | 0.00 | 0.00 | 85 | 1015.4 |
| 20260510022822 | 53 | 56 | 2.6 | 4.3 | 0.00 | 0.00 | 0.00 | 85 | 1015.5 |
| 20260510022355 | 53 | 19 | 1.7 | 4.3 | 0.00 | 0.00 | 0.00 | 85 | 1015.5 |
| 20260510021832 | 53 | 47 | 1.7 | 4.3 | 0.00 | 0.00 | 0.00 | 85 | 1015.6 |
| 20260510021328 | 53 | 27 | 2.6 | 4.3 | 0.00 | 0.00 | 0.00 | 85 | 1015.6 |
| 20260510020839 | 54 | 60 | 1.7 | 6.1 | 0.00 | 0.00 | 0.00 | 84 | 1015.6 |
| 20260510020320 | 54 | 16 | 2.6 | 6.1 | 0.00 | 0.00 | 0.00 | 84 | 1015.6 |
| 20260510015826 | 54 | 72 | 0.9 | 7.0 | 0.00 | 0.00 | 0.00 | 84 | 1015.6 |
| 20260510015321 | 54 | 339 | 2.6 | 7.0 | 0.00 | 0.00 | 0.00 | 84 | 1015.6 |
| 20260510014836 | 54 | 48 | 2.6 | 4.3 | 0.00 | 0.00 | 0.00 | 84 | 1015.5 |
| 20260510014317 | 54 | 8 | 1.7 | 4.3 | 0.00 | 0.00 | 0.00 | 84 | 1015.6 |
| 20260510013832 | 54 | 58 | 1.7 | 5.2 | 0.00 | 0.00 | 0.00 | 83 | 1015.6 |
| 20260510013324 | 54 | 11 | 2.6 | 5.2 | 0.00 | 0.00 | 0.00 | 83 | 1015.6 |
| 20260510012817 | 54 | 1 | 2.6 | 5.2 | 0.00 | 0.00 | 0.00 | 83 | 1015.6 |
| 20260510012333 | 54 | 30 | 2.6 | 5.2 | 0.00 | 0.00 | 0.00 | 83 | 1015.6 |
| 20260510011834 | 55 | 360 | 1.7 | 5.2 | 0.00 | 0.00 | 0.00 | 82 | 1015.7 |
| 20260510011327 | 55 | 37 | 2.6 | 6.1 | 0.00 | 0.00 | 0.00 | 82 | 1015.8 |
| 20260510010841 | 55 | 42 | 4.3 | 6.1 | 0.00 | 0.00 | 0.00 | 82 | 1015.8 |
| 20260510010343 | 55 | 48 | 1.7 | 5.2 | 0.00 | 0.00 | 0.00 | 82 | 1015.8 |
| 20260510005827 | 55 | 46 | 1.7 | 4.3 | 0.00 | 0.00 | 0.00 | 82 | 1015.8 |
| 20260510005322 | 55 | 33 | 0.9 | 3.5 | 0.00 | 0.00 | 0.00 | 81 | 1015.7 |
| 20260510004837 | 55 | 349 | 1.7 | 3.5 | 0.00 | 0.00 | 0.00 | 81 | 1015.8 |
| 20260510004335 | 55 | 42 | 0.9 | 2.6 | 0.00 | 0.00 | 0.00 | 81 | 1015.9 |
| 20260510003843 | 55 | 56 | 0.9 | 4.3 | 0.00 | 0.00 | 0.00 | 81 | 1015.9 |
| 20260510003325 | 55 | 333 | 2.6 | 4.3 | 0.00 | 0.00 | 0.00 | 81 | 1016.0 |
| 20260510002821 | 55 | 345 | 0.9 | 3.5 | 0.00 | 0.00 | 0.00 | 80 | 1016.0 |
| 20260510002315 | 55 | 359 | 0.9 | 2.6 | 0.00 | 0.00 | 0.00 | 80 | 1016.0 |
| 20260510001838 | 55 | 58 | 0.0 | 2.6 | 0.00 | 0.00 | 0.00 | 79 | 1016.0 |
| 20260510001334 | 55 | 56 | 0.9 | 2.6 | 0.00 | 0.00 | 0.00 | 79 | 1016.0 |
| 20260510000818 | 55 | 344 | 0.9 | 2.6 | 0.00 | 0.00 | 0.00 | 79 | 1016.1 |
| 20260510000320 | 55 | 41 | 1.7 | 2.6 | 0.00 | 0.00 | 0.00 | 78 | 1016.1 |
| 20260509235834 | 55 | 359 | 0.9 | 2.6 | 0.00 | 0.00 | 0.00 | 77 | 1016.2 |
| 20260509235321 | 55 | 3 | 0.9 | 3.5 | 0.00 | 0.00 | 0.00 | 77 | 1016.3 |
| 20260509234816 | 55 | 19 | 1.7 | 5.2 | 0.00 | 0.00 | 0.00 | 76 | 1016.2 |
| 20260509234319 | 56 | 342 | 2.6 | 5.2 | 0.00 | 0.00 | 0.00 | 76 | 1016.2 |
| 20260509233833 | 56 | 5 | 2.6 | 5.2 | 0.00 | 0.00 | 0.00 | 75 | 1016.3 |
| 20260509233328 | 56 | 22 | 0.9 | 7.0 | 0.00 | 0.00 | 0.00 | 75 | 1016.3 |
| 20260509232823 | 56 | 328 | 2.6 | 7.0 | 0.00 | 0.00 | 0.00 | 73 | 1016.3 |
| 20260509232316 | 57 | 56 | 0.9 | 4.3 | 0.00 | 0.00 | 0.00 | 73 | 1016.3 |
| 20260509231833 | 57 | 56 | 1.7 | 4.3 | 0.00 | 0.00 | 0.00 | 72 | 1016.3 |
| 20260509231326 | 57 | 43 | 1.7 | 5.2 | 0.00 | 0.00 | 0.00 | 72 | 1016.3 |
| 20260509230823 | 57 | 25 | 2.6 | 5.2 | 0.00 | 0.00 | 0.00 | 71 | 1016.3 |
| 20260509230317 | 57 | 354 | 1.7 | 6.1 | 0.00 | 0.00 | 0.00 | 70 | 1016.3 |
| 20260509225826 | 57 | 24 | 2.6 | 6.1 | 0.00 | 0.00 | 0.00 | 70 | 1016.3 |
| 20260509225334 | 57 | 30 | 1.7 | 6.1 | 0.00 | 0.00 | 0.00 | 69 | 1016.2 |
| 20260509224837 | 57 | 355 | 2.6 | 6.1 | 0.00 | 0.00 | 0.00 | 68 | 1016.2 |
| 20260509224331 | 57 | 352 | 1.7 | 4.3 | 0.00 | 0.00 | 0.00 | 68 | 1016.2 |
| 20260509223826 | 58 | 124 | 1.7 | 6.1 | 0.00 | 0.00 | 0.00 | 67 | 1016.3 |
| 20260509223318 | 58 | 41 | 2.6 | 6.1 | 0.00 | 0.00 | 0.00 | 67 | 1016.3 |
| 20260509222838 | 58 | 19 | 1.7 | 7.0 | 0.00 | 0.00 | 0.00 | 67 | 1016.2 |
| 20260509222322 | 58 | 15 | 1.7 | 3.5 | 0.00 | 0.00 | 0.00 | 67 | 1016.3 |
| 20260509221843 | 58 | 47 | 1.7 | 5.2 | 0.00 | 0.00 | 0.00 | 67 | 1016.4 |
| 20260509221324 | 58 | 24 | 0.9 | 2.6 | 0.00 | 0.00 | 0.00 | 67 | 1016.4 |
| 20260509220859 | 58 | 72 | 0.9 | 5.2 | 0.00 | 0.00 | 0.00 | 66 | 1016.4 |
| 20260509220329 | 59 | 128 | 1.7 | 5.2 | 0.00 | 0.00 | 0.00 | 66 | 1016.4 |
| 20260509215817 | 59 | 42 | 3.5 | 7.0 | 0.00 | 0.00 | 0.00 | 66 | 1016.4 |
| 20260509215332 | 59 | 11 | 3.5 | 7.0 | 0.00 | 0.00 | 0.00 | 66 | 1016.3 |
| 20260509214826 | 59 | 35 | 1.7 | 6.1 | 0.00 | 0.00 | 0.00 | 66 | 1016.2 |
| 20260509214320 | 59 | 30 | 2.6 | 6.1 | 0.00 | 0.00 | 0.00 | 65 | 1016.2 |
| 20260509213832 | 59 | 48 | 1.7 | 4.3 | 0.00 | 0.00 | 0.00 | 66 | 1016.3 |
| 20260509213326 | 59 | 46 | 1.7 | 5.2 | 0.00 | 0.00 | 0.00 | 65 | 1016.4 |
| 20260509212828 | 59 | 25 | 3.5 | 5.2 | 0.00 | 0.00 | 0.00 | 65 | 1016.3 |
| 20260509212343 | 59 | 46 | 2.6 | 5.2 | 0.00 | 0.00 | 0.00 | 66 | 1016.2 |
| 20260509211902 | 59 | 37 | 0.9 | 4.3 | 0.00 | 0.00 | 0.00 | 66 | 1016.2 |
| 20260509211355 | 59 | 346 | 0.0 | 2.6 | 0.00 | 0.00 | 0.00 | 65 | 1016.2 |
| 20260509210825 | 60 | 53 | 1.7 | 5.2 | 0.00 | 0.00 | 0.00 | 65 | 1016.2 |
| 20260509210318 | 60 | 58 | 0.9 | 5.2 | 0.00 | 0.00 | 0.00 | 65 | 1016.1 |
| 20260509205832 | 60 | 53 | 2.6 | 4.3 | 0.00 | 0.00 | 0.00 | 64 | 1016.1 |
| 20260509205322 | 60 | 354 | 0.9 | 4.3 | 0.00 | 0.00 | 0.00 | 64 | 1016.1 |
| 20260509204822 | 60 | 21 | 1.7 | 5.2 | 0.00 | 0.00 | 0.00 | 63 | 1016.1 |
| 20260509204317 | 60 | 46 | 1.7 | 5.2 | 0.00 | 0.00 | 0.00 | 63 | 1016.1 |
| 20260509203828 | 61 | 60 | 1.7 | 5.2 | 0.00 | 0.00 | 0.00 | 63 | 1016.1 |
| 20260509203322 | 61 | 25 | 1.7 | 5.2 | 0.00 | 0.00 | 0.00 | 63 | 1016.1 |
| 20260509202825 | 61 | 1 | 1.7 | 6.1 | 0.00 | 0.00 | 0.00 | 62 | 1016.1 |
| 20260509202333 | 61 | 35 | 3.5 | 6.1 | 0.00 | 0.00 | 0.00 | 62 | 1016.2 |
| 20260509201834 | 61 | 40 | 0.9 | 6.1 | 0.00 | 0.00 | 0.00 | 61 | 1016.2 |
| 20260509201357 | 61 | 344 | 1.7 | 6.1 | 0.00 | 0.00 | 0.00 | 61 | 1016.2 |
| 20260509200824 | 62 | 24 | 2.6 | 6.1 | 0.00 | 0.00 | 0.00 | 60 | 1016.2 |
| 20260509200327 | 62 | 50 | 2.6 | 6.1 | 0.00 | 0.00 | 0.00 | 61 | 1016.1 |
| 20260509195829 | 62 | 346 | 1.7 | 4.3 | 0.00 | 0.00 | 0.00 | 61 | 1016.1 |
| 20260509195344 | 62 | 63 | 2.6 | 4.3 | 0.00 | 0.00 | 0.00 | 61 | 1016.0 |
| 20260509194816 | 62 | 61 | 1.7 | 3.5 | 0.00 | 0.00 | 0.00 | 61 | 1016.0 |
| 20260509194318 | 62 | 359 | 0.9 | 5.2 | 0.00 | 0.00 | 0.00 | 61 | 1015.8 |
| 20260509193833 | 62 | 33 | 1.7 | 5.2 | 0.00 | 0.00 | 0.00 | 61 | 1015.8 |
| 20260509193348 | 63 | 48 | 0.9 | 3.5 | 0.00 | 0.00 | 0.00 | 61 | 1015.8 |
| 20260509192849 | 63 | 336 | 1.7 | 3.5 | 0.00 | 0.00 | 0.00 | 61 | 1015.9 |
| 20260509192344 | 63 | 53 | 0.9 | 3.5 | 0.00 | 0.00 | 0.00 | 60 | 1016.0 |
| 20260509191842 | 63 | 48 | 0.9 | 3.5 | 0.00 | 0.00 | 0.00 | 59 | 1016.0 |
| 20260509191404 | 64 | 360 | 1.7 | 3.5 | 0.00 | 0.00 | 0.00 | 59 | 1015.9 |
| 20260509190828 | 64 | 328 | 0.9 | 4.3 | 0.00 | 0.00 | 0.00 | 58 | 1015.8 |
| 20260509190319 | 64 | 57 | 1.7 | 4.3 | 0.00 | 0.00 | 0.00 | 58 | 1015.9 |
| 20260509185827 | 64 | 352 | 1.7 | 4.3 | 0.00 | 0.00 | 0.00 | 57 | 1015.9 |
| 20260509185321 | 65 | 10 | 1.7 | 6.1 | 0.00 | 0.00 | 0.00 | 57 | 1015.8 |
| 20260509184836 | 65 | 355 | 2.6 | 7.0 | 0.00 | 0.00 | 0.00 | 56 | 1015.8 |
| 20260509184336 | 66 | 333 | 2.6 | 7.0 | 0.00 | 0.00 | 0.00 | 55 | 1015.8 |
| 20260509183824 | 66 | 341 | 0.9 | 6.1 | 0.00 | 0.00 | 0.00 | 54 | 1015.8 |
| 20260509183357 | 66 | 347 | 2.6 | 6.1 | 0.00 | 0.00 | 0.00 | 53 | 1015.8 |
| 20260509182836 | 67 | 348 | 1.7 | 6.1 | 0.00 | 0.00 | 0.00 | 53 | 1015.7 |
| 20260509182325 | 67 | 349 | 3.5 | 7.8 | 0.00 | 0.00 | 0.00 | 52 | 1015.7 |
| 20260509181826 | 67 | 357 | 5.2 | 7.8 | 0.00 | 0.00 | 0.00 | 52 | 1015.6 |
| 20260509181341 | 67 | 345 | 0.9 | 7.8 | 0.00 | 0.00 | 0.00 | 53 | 1015.7 |
| 20260509180816 | 67 | 33 | 1.7 | 6.1 | 0.00 | 0.00 | 0.00 | 54 | 1015.6 |
| 20260509180338 | 67 | 316 | 1.7 | 7.8 | 0.00 | 0.00 | 0.00 | 53 | 1015.5 |
| 20260509175825 | 67 | 13 | 3.5 | 7.8 | 0.00 | 0.00 | 0.00 | 53 | 1015.6 |
| 20260509175340 | 67 | 317 | 3.5 | 7.8 | 0.00 | 0.00 | 0.00 | 53 | 1015.5 |
| 20260509174834 | 67 | 311 | 2.6 | 8.7 | 0.00 | 0.00 | 0.00 | 52 | 1015.4 |
| 20260509174336 | 68 | 341 | 4.3 | 10.4 | 0.00 | 0.00 | 0.00 | 52 | 1015.3 |
| 20260509173822 | 68 | 251 | 2.6 | 7.8 | 0.00 | 0.00 | 0.00 | 52 | 1015.4 |
| 20260509173316 | 68 | 24 | 2.6 | 11.3 | 0.00 | 0.00 | 0.00 | 52 | 1015.4 |
| 20260509172817 | 68 | 1 | 3.5 | 10.4 | 0.00 | 0.00 | 0.00 | 51 | 1015.3 |
| 20260509172326 | 68 | 336 | 3.5 | 8.7 | 0.00 | 0.00 | 0.00 | 51 | 1015.3 |
| 20260509171828 | 69 | 311 | 2.6 | 9.6 | 0.00 | 0.00 | 0.00 | 51 | 1015.3 |
| 20260509171324 | 69 | 6 | 6.1 | 9.6 | 0.00 | 0.00 | 0.00 | 50 | 1015.3 |
| 20260509170819 | 69 | 5 | 5.2 | 8.7 | 0.00 | 0.00 | 0.00 | 50 | 1015.3 |
| 20260509170342 | 70 | 345 | 4.3 | 7.8 | 0.00 | 0.00 | 0.00 | 49 | 1015.4 |
| 20260509165828 | 70 | 339 | 4.3 | 7.8 | 0.00 | 0.00 | 0.00 | 49 | 1015.4 |
| 20260509165316 | 70 | 19 | 4.3 | 7.8 | 0.00 | 0.00 | 0.00 | 49 | 1015.4 |
| 20260509164817 | 70 | 316 | 3.5 | 8.7 | 0.00 | 0.00 | 0.00 | 48 | 1015.3 |
| 20260509164341 | 70 | 352 | 5.2 | 9.6 | 0.00 | 0.00 | 0.00 | 48 | 1015.4 |
| 20260509163846 | 70 | 333 | 4.3 | 7.8 | 0.00 | 0.00 | 0.00 | 47 | 1015.4 |
| 20260509163326 | 71 | 33 | 4.3 | 7.0 | 0.00 | 0.00 | 0.00 | 47 | 1015.5 |
| 20260509162820 | 71 | 352 | 0.9 | 7.0 | 0.00 | 0.00 | 0.00 | 46 | 1015.4 |
| 20260509162316 | 71 | 353 | 1.7 | 4.3 | 0.00 | 0.00 | 0.00 | 45 | 1015.4 |
| 20260509161840 | 70 | 32 | 0.9 | 5.2 | 0.00 | 0.00 | 0.00 | 46 | 1015.5 |
| 20260509161352 | 70 | 304 | 2.6 | 5.2 | 0.00 | 0.00 | 0.00 | 46 | 1015.5 |
| 20260509160823 | 70 | 342 | 0.0 | 5.2 | 0.00 | 0.00 | 0.00 | 47 | 1015.5 |
| 20260509160335 | 69 | 333 | 2.6 | 7.0 | 0.00 | 0.00 | 0.00 | 47 | 1015.5 |
| 20260509155825 | 69 | 67 | 2.6 | 7.0 | 0.00 | 0.00 | 0.00 | 48 | 1015.5 |
| 20260509155320 | 69 | 40 | 2.6 | 6.1 | 0.00 | 0.00 | 0.00 | 47 | 1015.5 |
| 20260509154815 | 69 | 19 | 2.6 | 5.2 | 0.00 | 0.00 | 0.00 | 49 | 1015.5 |
| 20260509154334 | 69 | 40 | 1.7 | 5.2 | 0.00 | 0.00 | 0.00 | 47 | 1015.4 |
| 20260509153820 | 69 | 5 | 3.5 | 5.2 | 0.00 | 0.00 | 0.00 | 48 | 1015.4 |
| 20260509153322 | 70 | 114 | 0.9 | 2.6 | 0.00 | 0.00 | 0.00 | 46 | 1015.4 |
| 20260509152815 | 70 | 35 | 0.9 | 2.6 | 0.00 | 0.00 | 0.00 | 46 | 1015.4 |
| 20260509152330 | 70 | 147 | 0.0 | 1.7 | 0.00 | 0.00 | 0.00 | 47 | 1015.6 |
| 20260509151823 | 71 | 141 | 0.9 | 2.6 | 0.00 | 0.00 | 0.00 | 48 | 1015.6 |
| 20260509151326 | 71 | 108 | 1.7 | 2.6 | 0.00 | 0.00 | 0.00 | 43 | 1015.6 |
| 20260509150900 | 72 | 129 | 0.9 | 2.6 | 0.00 | 0.00 | 0.00 | 43 | 1015.7 |
| 20260509150333 | 72 | 67 | 0.0 | 1.7 | 0.00 | 0.00 | 0.00 | 44 | 1015.7 |
| 20260509145824 | 71 | 131 | 0.9 | 1.7 | 0.00 | 0.00 | 0.00 | 45 | 1015.7 |
| 20260509145328 | 71 | 165 | 0.0 | 1.7 | 0.00 | 0.00 | 0.00 | 44 | 1015.6 |
| 20260509144831 | 71 | 358 | 0.0 | 0.9 | 0.00 | 0.00 | 0.00 | 44 | 1015.8 |
| 20260509144325 | 71 | 305 | 0.0 | 3.5 | 0.00 | 0.00 | 0.00 | 42 | 1015.8 |
| 20260509143817 | 72 | 335 | 1.7 | 3.5 | 0.00 | 0.00 | 0.00 | 42 | 1015.8 |
| 20260509143332 | 73 | 170 | 0.9 | 3.5 | 0.00 | 0.00 | 0.00 | 40 | 1015.9 |
| 20260509142832 | 74 | 71 | 0.9 | 3.5 | 0.00 | 0.00 | 0.00 | 42 | 1016.0 |
| 20260509142321 | 74 | 6 | 0.9 | 2.6 | 0.00 | 0.00 | 0.00 | 43 | 1015.9 |
| 20260509141822 | 73 | 94 | 0.9 | 2.6 | 0.00 | 0.00 | 0.00 | 44 | 1016.0 |
| 20260509141318 | 72 | 27 | 0.9 | 2.6 | 0.00 | 0.00 | 0.00 | 44 | 1016.0 |
| 20260509140830 | 71 | 328 | 0.9 | 2.6 | 0.00 | 0.00 | 0.00 | 44 | 1016.0 |
| 20260509140324 | 71 | 312 | 0.9 | 5.2 | 0.00 | 0.00 | 0.00 | 44 | 1016.1 |
| 20260509135837 | 71 | 22 | 1.7 | 6.1 | 0.00 | 0.00 | 0.00 | 44 | 1016.1 |
| 20260509135331 | 71 | 295 | 1.7 | 6.1 | 0.00 | 0.00 | 0.00 | 45 | 1016.1 |
| 20260509134822 | 71 | 13 | 2.6 | 6.1 | 0.00 | 0.00 | 0.00 | 47 | 1016.1 |
| 20260509134325 | 71 | 356 | 2.6 | 4.3 | 0.00 | 0.00 | 0.00 | 45 | 1016.2 |
| 20260509133833 | 71 | 11 | 1.7 | 3.5 | 0.00 | 0.00 | 0.00 | 46 | 1016.2 |
| 20260509133334 | 71 | 61 | 0.0 | 2.6 | 0.00 | 0.00 | 0.00 | 46 | 1016.3 |
| 20260509132826 | 71 | 61 | 0.9 | 3.5 | 0.00 | 0.00 | 0.00 | 44 | 1016.3 |
| 20260509132341 | 71 | 150 | 0.9 | 7.0 | 0.00 | 0.00 | 0.00 | 45 | 1016.4 |
| 20260509131843 | 72 | 111 | 2.6 | 7.0 | 0.00 | 0.00 | 0.00 | 43 | 1016.4 |
| 20260509131336 | 72 | 33 | 1.7 | 6.1 | 0.00 | 0.00 | 0.00 | 45 | 1016.5 |
| 20260509130829 | 72 | 354 | 0.9 | 3.5 | 0.00 | 0.00 | 0.00 | 44 | 1016.6 |
| 20260509130321 | 72 | 200 | 0.0 | 2.6 | 0.00 | 0.00 | 0.00 | 44 | 1016.7 |
| 20260509125833 | 72 | 27 | 0.9 | 3.5 | 0.00 | 0.00 | 0.00 | 44 | 1016.8 |
| 20260509125320 | 72 | 103 | 1.7 | 3.5 | 0.00 | 0.00 | 0.00 | 47 | 1016.8 |
| 20260509124821 | 71 | 150 | 1.7 | 3.5 | 0.00 | 0.00 | 0.00 | 47 | 1016.8 |
| 20260509124329 | 71 | 142 | 0.9 | 3.5 | 0.00 | 0.00 | 0.00 | 47 | 1016.9 |
| 20260509123825 | 72 | 47 | 0.9 | 6.1 | 0.00 | 0.00 | 0.00 | 46 | 1016.9 |
| 20260509123320 | 71 | 316 | 1.7 | 6.1 | 0.00 | 0.00 | 0.00 | 45 | 1017.0 |
| 20260509122823 | 71 | 53 | 3.5 | 6.1 | 0.00 | 0.00 | 0.00 | 46 | 1017.0 |
| 20260509122328 | 72 | 360 | 2.6 | 4.3 | 0.00 | 0.00 | 0.00 | 45 | 1017.0 |
| 20260509121829 | 72 | 115 | 0.9 | 6.1 | 0.00 | 0.00 | 0.00 | 45 | 1017.1 |
| 20260509121323 | 72 | 294 | 2.6 | 7.0 | 0.00 | 0.00 | 0.00 | 45 | 1017.2 |
| 20260509120839 | 73 | 1 | 2.6 | 5.2 | 0.00 | 0.00 | 0.00 | 45 | 1017.2 |
| 20260509120340 | 72 | 5 | 1.7 | 3.5 | 0.00 | 0.00 | 0.00 | 45 | 1017.2 |
| 20260509115825 | 73 | 207 | 1.7 | 2.6 | 0.00 | 0.00 | 0.00 | 44 | 1017.3 |
| 20260509115321 | 73 | 201 | 0.9 | 4.3 | 0.00 | 0.00 | 0.00 | 46 | 1017.4 |
| 20260509114836 | 72 | 115 | 0.0 | 4.3 | 0.00 | 0.00 | 0.00 | 46 | 1017.4 |
| 20260509114335 | 71 | 309 | 0.9 | 2.6 | 0.00 | 0.00 | 0.00 | 47 | 1017.4 |
| 20260509113829 | 70 | 11 | 0.9 | 4.3 | 0.00 | 0.00 | 0.00 | 47 | 1017.5 |